COSMOS 2251 DEB, 33934

Orbit data source: Space-Track

COSMOS 2251 DEB, 33934 is space debris in LEO originally from a launch on Wed, 16 Jun 1993 UTC launched from the Plesetsk Missile And Space Complex (PKMTR). The debris from Iridium 33, an American commercial communications satellite, has been tracked extensively since its accidental collision with the defunct Russian satellite Cosmos 2251 in 2009. This event, occurring at high speed in low Earth orbit (LEO), generated thousands of pieces of space debris, significantly increasing the risk of further collisions. The Iridium 33 debris cloud has impacted space traffic management and orbital debris mitigation strategies, making it a subject of ongoing study in space situational awareness.

Loading next visibility...
Identifier
33934, 1993-036EP
Orbit
LEO
Country
Flag of CISCIS
Related business
Manufacturer
Unknown
Mission
Spacecraft
Bus & Motor
Unknown
Mass
Unknown
Launch date (UTC)
1993-06-16 (33 years ago)
Launch vehicle
Unknown
Launch site
Plesetsk Missile And Space Complex (PKMTR)
Object type
Payload
Rocket body
Debris
Shape & HBR
Unknown shape, 0.2 m
Radar Cross Section
Medium (>0.1 m² and <1 m²)

Expand to show TLE details & history
Last TLE update: 17 hours ago

TLE from 17 hours ago
0 COSMOS 2251 DEB
1 33934U 93036EP  26207.60154775  .00003434  00000-0  70982-3 0  9998
2 33934  74.0366  29.6120 0015871  91.5675 268.7309 14.60660597920353
Epoch: 2026-07-26T14:26Z
TLE epoch observation values (Epoch: 2026-07-26T14:26:13.725Z)
Latitude
-0.00004°
Longitude
-131.24233°
Altitude
693.949 km
Speed
7.509 km/s
True Right ascension
01h 58m 26s
True Declination
0° 00' 00"
Sunlit
Object was in daylight at epoch
Visualization orbit readout
Latitude
Unknown
Longitude
Unknown
Altitude
Unknown
Speed
Unknown
Apparent Right ascension
Unknown
Apparent Declination
Unknown
Sunlit
N/A
Visualization observer readout
Local Sidereal Time
21:10:18
Azimuth
Unknown
Elevation
Unknown
Doppler factor
Unknown
Orbital elements
Apogee altitude
699.854 km
Perigee altitude
677.423 km
Semi-major axis
7,066.776 km
Eccentricity
0.00159
Inclination
74.0366°
RAAN
29.612°
Arg. of periapsis
91.5675°
True anomaly
268.54908°
Mean anomaly
268.7309°
Eccentric anomaly
268.63999°
Mean motion
3.65352 °/min
Orbital period
98.54 mins
BSTAR
0.00070982
Loading maneuver chart data...
Computing Atmospheric mass density...

Documentation

Showing up to 5 results
|